Miscellaneous Local Product
Issued by NWS North Platte, NE

Home | Current Version | Previous Version | Graphics & Text | Print | Product List | Glossary On
Versions: 1 2 3 4 5 6 7 8 9 10 11 12 13 14 15 16 17 18 19 20 21 22 23 24 25 26 27 28 29 30 31 32 33 34 35 36 37 38 39 40 41 42 43 44 45 46 47 48 49 50
000
AXUS43 KLBF 302110
MISLBF


WESTERN AND NORTH CENTRAL NEBRASKA HOURLY WEATHER ROUNDUP
NATIONAL WEATHER SERVICE NORTH PLATTE NE
400 PM CDT THU JUL 30 2015

***STATIONS NOT REPORTING VARIABLES SUCH AS SKY/WEATHER OR
PRESSURE ARE PROVIDED BY THE NEBRASKA DEPARTMENT OF
ROADS...RAWS...AND APRS NETWORKS...AND ARE NOT UNDER
NATIONAL WEATHER SERVICE QUALITY CONTROL***

...OBSERVATIONS IN AND NEAR THE EASTERN PANHANDLE OF NEBRASKA...

CITY           SKY/WX    TMP DP  RH WIND       PRES   REMARKS
PINE RIDGE     SUNNY     89  44  20 MISG      30.24F
CHADRON        SUNNY     89  45  21 CALM      30.23F
ALLIANCE       SUNNY     89  52  28 E8        30.25F
SIDNEY         MOSUNNY   87  58  37 NE5       30.26F
BIG SPRINGS      N/A     89  66  46 S9          N/A  HX  91
$$

...OBSERVATIONS IN NORTH CENTRAL NEBRASKA...

CITY           SKY/WX    TMP DP  RH WIND       PRES   REMARKS
VALENTINE      SUNNY     92  41  17 NW7       30.19F
THEDFORD       PTSUNNY   89  56  33 SW9       30.20F
AINSWORTH      SUNNY     90  50  25 W5        30.19F
O`NEILL        PTSUNNY   87  57  35 NW5       30.17F
ORD            SUNNY     89  60  37 S12       30.17F
BROKEN BOW     SUNNY     89  61  38 SW12      30.21F
SPRINGVIEW       N/A     90  54  29 NE6G13      N/A
CHAMBERS         N/A     93  60  33 S6          N/A  HX  92
EWING            N/A     89  64  43 S5          N/A  HX  90
$$

...OBSERVATIONS IN SOUTHWEST NEBRASKA AND FAR NORTHEAST COLORADO...

CITY           SKY/WX    TMP DP  RH WIND       PRES   REMARKS
WRAY           FAIR      94  54  26 S12G20    30.23F HX  91
IMPERIAL       SUNNY     91  56  30 S8        30.21F
OGALLALA       MOSUNNY   90  58  34 E5        30.21F
NORTH PLATTE   SUNNY     89  57  33 S6        30.20F
MCCOOK         SUNNY     90  59  35 VRB3      30.20F
LEXINGTON      SUNNY     89  61  39 SW6       30.20F
PAXTON           N/A     88  65  46 SE7         N/A  HX  90
BRADY            N/A     87  62  43 CALM        N/A
CALLAWAY         N/A     87  70  57 S10         N/A  HX  92
$$

...NORTH PLATTE AREA...

CITY           SKY/WX    TMP DP  RH WIND       PRES   REMARKS
AIRPORT        SUNNY     89  57  33 S6        30.20F
DOWNTOWN         N/A     90  57  32 S3          N/A
SANDRIDGE        N/A     90  56  31 S5          N/A
HILLCREST        N/A     90  56  31 S6G15       N/A
$$

...SOME WEATHER OBSERVATIONS FROM AROUND THE REGION...

CITY           SKY/WX    TMP DP  RH WIND       PRES   REMARKS
DENVER         MOSUNNY   89  39  17 N10G16    30.30F
LARAMIE        SUNNY     81  24  12 SE7       30.45F
CHEYENNE       SUNNY     84  40  21 SE8       30.38F
SCOTTSBLUFF    SUNNY     89  45  21 VRB7      30.26F
RAPID CITY     SUNNY     87  46  24 NE6       30.24F
PIERRE         SUNNY     91  43  18 NW9       30.12F
WINNER         FAIR      93  45  19 W9        30.16F
SIOUX FALLS    MOSUNNY   86  60  41 W7        30.13F
OMAHA          MOSUNNY   90  57  32 W10       30.15F
GRAND ISLAND   SUNNY     89  62  40 W6        30.20F
KANSAS CITY    PTSUNNY   85  66  53 SW6       30.18F
WICHITA        PTSUNNY   83  69  62 E5        30.17F
HAYS           PTSUNNY   84  64  51 SE6       30.19F
LIBERAL        PTSUNNY   82  70  65 SE10G16   30.23F
GOODLAND       SUNNY     87  60  40 VRB7G17   30.24F
$$



USA.gov is the U.S. government's official web portal to all federal, state and local government web resources and services.